Ariane H10 - Orbit

View from above orbital plane
View from above orbital plane
View from above satellite
View from above satellite

Ground track
Ground track

The orbit data is extracted from the following two-line orbital elements,

1 20717U 90063C   13137.14433905  .00000095  00000-0  68627-3 0  5126
2 20717 004.0916 316.3197 7167075 041.4849 107.6642 02.33034574184293
Epoch (UTC): 17 May 2013 03:27:50
Eccentricity: 0.7167075
inclination: 4.0916°
perigee height: 430 km
apogee height: 34877 km
right ascension of ascending node: 316.3197°
argument of perigee: 41.4849°
revolutions per day: 2.33034574
mean anomaly at epoch: 107.6642°
orbit number at epoch: 18429

The dashed part of the orbit path shows where the satellite is in the earth's shadow,  

Developed and maintained by Chris Peat, Heavens-Above GmbH. Please read the updated FAQ before sending e-mail. Imprint. DLR